STARLINK-32324, 61863

Orbit data source: Space-Track

STARLINK-32324, 61863 is a payload satellite owned by SpaceX/Seattle (US) in LEO that was launched on Thu, 07 Nov 2024 UTC via an FALCON 9 launch vehicle from the Air Force Eastern Test Range (AFETR). Payload-class satellites include a variety of spacecraft equipped with specific instruments for various scientific and technological missions. These include communications satellites like Starlink; space stations such as the ISS; scientific satellites like the Hubble; Earth observation satellites from companies like Planet Labs, Umbra, and HawkEye 360; GPS; miniature CubeSats for education and research; and military/defense satellites.

Loading next visibility...
Identifier
61863, 2024-202U
Orbit
LEO
Country
Flag of USUS
Related business
Manufacturer
SpaceX/Seattle
Mission
Operational Commercial Communications
Bus & Motor
STARLINK V2M, Unknown motor
Mass
730 kg wet, ~700 kg dry
Launch date (UTC)
2024-11-07 (11 months ago)
Launch vehicle
FALCON 9
Launch site
Air Force Eastern Test Range (AFETR)
Object type
Payload
Rocket body
Debris
Shape & HBR
Box + 2 Pan, 17.7 m
Radar Cross Section
33.884 m², Large (>1 m²)

Expand to show TLE details & history
Last TLE update: 11 hours ago

TLE from 11 hours ago
0 STARLINK-32324
1 61863U 24202U   25286.56047441 -.00000776  00000-0 -18684-4 0  9991
2 61863  43.0021 349.1115 0000376  66.4114 293.6777 15.27578843 52826
Epoch: 2025-10-13T13:27Z
TLE epoch observation values (Epoch: 2025-10-13T13:27:04.989Z)
Latitude
-0.00001°
Longitude
124.9792°
Altitude
482.725 km
Speed
7.626 km/s
True Right ascension
23h 16m 26s
True Declination
0° 00' 00"
Sunlit
Object was in full shadow at epoch
Visualization orbit readout
Latitude
Unknown
Longitude
Unknown
Altitude
Unknown
Speed
Unknown
Apparent Right ascension
Unknown
Apparent Declination
Unknown
Sunlit
N/A
Visualization observer readout
Local Sidereal Time
18:49:16
Azimuth
Unknown
Elevation
Unknown
Doppler factor
Unknown
Orbital elements
Apogee altitude
485.255 km
Perigee altitude
484.739 km
Semi-major axis
6,863.134 km
Eccentricity
0.00004
Inclination
43.0021°
RAAN
349.1115°
Arg. of periapsis
66.4114°
True anomaly
293.67375°
Mean anomaly
293.6777°
Eccentric anomaly
293.67573°
Mean motion
3.81733 °/min
Orbital period
94.31 mins
BSTAR
-0.000018684
Loading maneuver chart data...
Computing Atmospheric mass density...
Loading historical data...
Loading historical data...
Loading historical data...
Loading historical data...
Loading historical data...
Loading historical data...
Loading historical data...

Documentation

Showing up to 5 results
|